Temp
77 82 82 83 83 83 83 83 83 83 83 83 83 83 83 83 83 83 83 83 83 83 84 84 84 84 84 83 83 83 83 83 83 83 83 83 82 83 83 83 85 84 83
79 81 81 83 83 83 83 83 83 83 83 83 83 83 83 83 83 83 83 83 84 84 84 84 84 84 84 83 83 83 83 83 83 83 83 84 83 83 83 84 84 83 83
79 82 83 82 83 83 83 83 83 83 83 83 83 84 83 83 83 83 84 84 84 84 84 84 84 84 84 83 83 83 83 83 83 83 83 83 82 83 83 82 83 82 81
83 86 87 82 83 83 82 83 83 84 83 83 83 84 84 84 84 84 84 84 84 84 84 84 84 84 84 84 83 83 83 83 83 83 79 84 86 83 83 82 82 81 82
85 90 85 82 83 83 83 83 83 83 84 84 84 84 84 84 84 84 84 84 84 84 84 85 85 85 85 84 84 83 83 83 84 84 81 81 81 83 83 83 83 83 83
88 92 83 83 83 83 83 83 83 84 84 84 84 84 84 84 84 84 84 85 84 84 85 85 85 85 85 84 84 83 83 83 84 79 84 83 80 83 83 83 83 83 82
90 88 86 83 83 83 83 83 84 84 84 84 84 84 84 84 84 85 85 85 85 85 85 85 85 84 84 84 84 83 83 84 84 81 84 81 80 82 83 83 83 82 82
88 90 86 83 83 83 84 84 84 84 84 84 84 84 84 84 85 85 85 85 85 85 85 85 85 84 84 83 83 83 83 84 86 83 82 80 81 82 83 83 82 82 82
92 90 86 86 85 84 84 84 84 84 84 84 84 84 84 85 85 85 85 85 85 85 85 85 85 85 84 84 83 83 83 82 85 81 84 81 81 82 83 82 82 82 82
93 90 87 87 87 85 85 84 84 84 84 84 84 85 85 85 85 85 84 85 86 86 86 86 85 85 85 84 84 84 84 83 76 82 82 80 81 83 83 82 82 82 81
90 90 90 89 87 85 85 85 84 84 84 84 84 84 81 83 81 84 86 85 86 86 86 86 86 86 83 84 84 84 85 78 80 83 82 80 81 83 83 82 82 81 81
86 91 92 90 89 87 90 83 84 86 86 86 84 74 71 78 81 85 87 85 86 86 86 87 86 85 81 79 84 84 84 85 84 83 81 80 82 83 83 82 82 81 81
90 93 92 89 88 88 86 85 87 88 88 85 78 71 71 77 79 79 84 84 84 81 84 81 83 86 83 84 86 86 88 87 86 85 81 81 82 83 83 82 81 81 82
89 92 94 91 88 88 87 87 89 90 85 90 89 83 79 75 75 82 80 85 80 81 79 81 82 84 85 85 84 85 89 88 85 83 81 81 82 83 83 82 82 82 81
89 93 92 89 86 87 85 88 90 87 92 88 88 87 77 75 81 85 85 81 78 74 73 76 82 81 82 81 84 86 87 87 86 84 81 81 82 82 83 83 82 82 82
90 92 93 89 87 89 88 89 85 90 90 89 89 88 87 82 82 86 85 82 82 79 74 77 76 77 78 81 83 87 86 87 85 84 83 80 81 82 83 83 83 82 82
94 94 90 88 89 87 87 89 89 91 92 91 88 87 89 88 87 83 83 79 81 82 85 83 79 77 76 84 85 86 85 87 87 85 84 82 81 82 82 83 82 82 82
94 90 89 94 89 87 86 87 88 89 90 89 91 88 88 90 89 86 82 78 76 81 82 82 82 77 79 81 82 82 82 84 86 86 83 85 82 83 82 82 82 81 82
92 89 89 90 87 86 85 86 86 87 89 90 91 89 86 88 88 86 85 83 82 76 79 84 83 82 81 83 84 84 83 82 83 88 86 83 82 82 81 81 81 81 82
92 90 88 89 85 84 86 85 87 88 88 89 90 89 85 87 88 87 86 85 84 77 83 83 82 83 82 81 90 85 82 83 83 83 85 87 82 81 82 79 78 80 81
92 88 87 86 85 85 85 84 84 84 86 87 89 89 86 87 87 86 83 76 82 79 82 84 83 83 81 83 79 79 79 83 85 84 83 84 84 83 83 80 79 79 79
90 88 85 85 85 85 85 84 85 85 88 87 88 88 87 87 85 85 84 82 83 81 82 83 82 78 80 81 77 75 72 76 81 85 82 83 83 83 83 82 81 78 77
89 87 85 85 85 84 85 86 85 86 86 85 86 87 87 87 86 84 84 84 83 81 80 82 82 81 77 80 82 77 71 70 75 79 81 81 82 79 80 81 81 79 79
91 90 86 85 85 85 85 85 83 83 83 85 85 86 86 86 87 87 85 84 84 81 80 80 84 82 80 77 79 82 80 77 71 71 77 78 81 83 80 79 80 81 79
93 91 88 85 84 84 84 84 84 82 86 87 87 85 84 84 86 88 85 85 84 84 81 80 83 82 82 80 78 78 79 78 79 74 71 74 78 79 80 80 81 79 81
95 92 89 84 83 84 83 83 83 82 83 85 84 85 86 86 86 86 87 84 84 83 82 81 82 83 81 81 81 80 77 76 76 75 73 74 74 77 79 79 80 79 81
MSLP
1013.85 1013.92 1014.29 1014.31 1014.49 1014.49 1014.65 1014.88 1015.10 1015.20 1015.23 1015.39 1015.62 1015.82 1015.93 1015.95 1016.15 1016.25 1016.32 1016.34 1016.47 1016.72 1016.94 1017.03 1017.08 1017.21 1017.32 1017.38 1017.36 1017.39 1017.41 1017.40 1017.45 1017.54 1017.64 1017.81 1017.96 1018.10 1018.11 1017.99 1017.97 1018.18 1018.49
1013.56 1013.94 1014.38 1014.54 1014.70 1014.72 1014.91 1015.13 1015.34 1015.40 1015.41 1015.66 1015.93 1016.02 1016.15 1016.28 1016.36 1016.49 1016.54 1016.56 1016.71 1016.89 1017.02 1017.13 1017.21 1017.40 1017.52 1017.58 1017.58 1017.53 1017.53 1017.61 1017.63 1017.73 1017.84 1017.90 1018.16 1018.33 1018.33 1018.15 1018.34 1018.54 1018.80
1013.88 1014.07 1014.44 1014.73 1014.84 1015.03 1015.19 1015.33 1015.53 1015.57 1015.64 1015.94 1016.15 1016.29 1016.42 1016.53 1016.62 1016.64 1016.68 1016.75 1016.91 1017.07 1017.24 1017.25 1017.36 1017.53 1017.67 1017.72 1017.75 1017.73 1017.68 1017.85 1018.00 1018.05 1018.16 1017.90 1018.26 1018.51 1018.68 1018.62 1018.76 1018.96 1019.19
1013.50 1013.71 1014.15 1014.88 1015.04 1015.19 1015.38 1015.51 1015.65 1015.76 1015.90 1016.23 1016.44 1016.58 1016.62 1016.71 1016.72 1016.74 1016.82 1016.96 1017.14 1017.27 1017.36 1017.46 1017.53 1017.62 1017.69 1017.77 1017.83 1017.83 1017.74 1017.93 1018.13 1018.04 1018.10 1017.89 1018.11 1018.69 1018.86 1019.09 1019.15 1019.22 1019.39
1013.27 1013.08 1014.14 1014.91 1015.18 1015.31 1015.53 1015.71 1015.83 1015.97 1016.17 1016.44 1016.65 1016.70 1016.81 1016.88 1016.84 1016.93 1017.00 1017.13 1017.32 1017.43 1017.45 1017.52 1017.60 1017.63 1017.67 1017.78 1017.87 1017.84 1017.76 1017.75 1018.37 1018.06 1018.11 1017.86 1018.37 1018.90 1019.09 1019.22 1019.37 1019.47 1019.51
1012.71 1012.64 1014.35 1014.86 1015.25 1015.48 1015.72 1015.89 1016.00 1016.26 1016.50 1016.74 1016.93 1017.02 1017.10 1017.12 1017.07 1017.10 1017.11 1017.21 1017.39 1017.51 1017.57 1017.62 1017.63 1017.63 1017.71 1017.84 1017.89 1017.82 1017.82 1017.97 1018.13 1018.11 1018.18 1018.41 1018.86 1019.20 1019.34 1019.46 1019.59 1019.77 1019.91
1012.38 1013.25 1014.19 1014.81 1015.36 1015.65 1015.88 1016.03 1016.23 1016.60 1016.86 1017.08 1017.20 1017.32 1017.42 1017.44 1017.40 1017.29 1017.26 1017.33 1017.42 1017.54 1017.62 1017.66 1017.67 1017.68 1017.70 1017.78 1017.84 1017.87 1017.93 1018.00 1018.13 1018.05 1018.36 1018.75 1019.25 1019.41 1019.65 1019.84 1019.93 1020.09 1020.23
1012.64 1013.26 1014.31 1015.10 1015.50 1015.83 1016.05 1016.25 1016.53 1016.95 1017.25 1017.41 1017.52 1017.65 1017.73 1017.74 1017.64 1017.51 1017.44 1017.45 1017.48 1017.54 1017.62 1017.64 1017.61 1017.61 1017.64 1017.73 1017.82 1017.97 1018.11 1018.07 1018.21 1018.35 1018.65 1019.05 1019.38 1019.63 1019.82 1020.03 1020.23 1020.35 1020.49
1012.28 1013.20 1014.46 1015.08 1015.54 1015.96 1016.25 1016.51 1016.86 1017.27 1017.52 1017.67 1017.81 1017.92 1018.04 1018.11 1018.11 1017.98 1017.76 1017.59 1017.56 1017.64 1017.73 1017.69 1017.74 1017.88 1017.89 1017.79 1017.83 1018.15 1018.48 1018.57 1018.18 1018.77 1019.01 1019.34 1019.42 1019.66 1019.92 1020.18 1020.36 1020.59 1020.74
1012.34 1013.39 1014.30 1014.89 1015.42 1015.86 1016.36 1016.77 1017.13 1017.46 1017.69 1017.67 1017.73 1017.87 1018.13 1018.06 1018.00 1018.15 1018.16 1017.80 1017.72 1017.77 1017.84 1018.00 1018.15 1018.14 1018.20 1018.22 1018.37 1018.49 1018.77 1018.87 1018.75 1018.74 1019.22 1019.49 1019.65 1019.85 1020.08 1020.37 1020.60 1020.76 1020.89
1012.31 1013.26 1013.95 1014.52 1015.07 1015.61 1016.24 1016.87 1017.29 1017.59 1017.49 1017.52 1017.65 1017.88 1018.13 1017.83 1017.94 1017.95 1018.12 1018.05 1018.06 1018.12 1018.18 1018.29 1018.27 1018.26 1017.95 1018.07 1018.31 1018.51 1018.55 1018.84 1018.45 1018.76 1019.21 1019.59 1019.68 1019.83 1020.18 1020.41 1020.76 1020.93 1021.04
1012.19 1012.78 1013.47 1014.01 1014.63 1015.32 1015.74 1016.82 1017.13 1017.20 1016.99 1017.00 1017.16 1016.81 1018.01 1017.77 1017.77 1017.78 1018.05 1018.31 1018.38 1018.49 1018.51 1018.36 1018.39 1018.60 1017.90 1018.00 1017.93 1018.06 1018.16 1018.30 1018.67 1018.86 1019.17 1019.24 1019.56 1019.84 1020.22 1020.45 1020.78 1021.07 1021.21
1011.74 1012.09 1012.90 1013.68 1014.20 1014.77 1015.37 1016.41 1016.61 1016.49 1016.25 1016.31 1016.94 1017.35 1017.42 1018.34 1017.81 1017.79 1018.08 1018.44 1018.36 1018.73 1018.50 1018.51 1018.33 1018.13 1018.06 1017.77 1017.21 1017.36 1016.96 1017.80 1018.28 1018.68 1019.12 1019.24 1019.40 1019.82 1020.24 1020.59 1020.83 1021.09 1021.30
1011.45 1011.54 1012.29 1013.15 1013.88 1014.28 1015.14 1015.71 1015.78 1015.67 1015.74 1015.64 1015.96 1016.90 1017.99 1017.56 1018.12 1017.92 1017.81 1017.98 1018.24 1018.55 1018.88 1018.59 1018.68 1017.91 1017.75 1017.55 1017.40 1017.07 1016.98 1017.58 1018.25 1018.92 1019.29 1019.34 1019.43 1019.99 1020.40 1020.75 1021.05 1021.30 1021.48
1011.03 1011.07 1011.92 1012.95 1013.68 1014.01 1014.66 1014.99 1015.04 1015.10 1015.06 1015.37 1015.97 1016.57 1017.73 1017.52 1017.45 1017.41 1017.51 1017.92 1018.60 1018.62 1019.00 1019.08 1018.31 1018.19 1018.09 1017.70 1017.65 1017.33 1017.19 1017.50 1018.39 1018.94 1019.43 1019.63 1019.67 1019.96 1020.25 1020.58 1021.02 1021.33 1021.56
1010.33 1010.71 1011.54 1012.67 1013.44 1013.84 1014.42 1014.54 1014.87 1014.79 1015.06 1015.16 1015.28 1016.08 1016.85 1017.39 1017.37 1017.07 1017.28 1017.79 1017.82 1018.30 1018.98 1018.96 1018.46 1018.15 1018.51 1017.91 1017.79 1017.52 1017.61 1017.65 1018.03 1018.53 1019.30 1019.71 1019.97 1020.16 1020.40 1020.74 1021.11 1021.45 1021.72
1009.64 1010.32 1011.41 1012.42 1013.23 1013.98 1014.46 1014.61 1014.79 1014.79 1014.92 1015.06 1015.39 1015.89 1016.16 1016.65 1016.78 1016.88 1017.04 1017.73 1018.13 1017.88 1017.84 1018.21 1018.21 1018.34 1018.51 1017.71 1017.74 1017.62 1017.78 1017.69 1017.79 1018.45 1018.99 1019.58 1020.08 1020.33 1020.54 1020.80 1021.06 1021.40 1021.74
1009.40 1010.28 1011.32 1011.98 1013.10 1013.90 1014.46 1014.71 1014.89 1014.93 1014.87 1014.75 1014.91 1015.45 1015.98 1016.32 1016.40 1016.59 1016.82 1017.50 1017.51 1017.76 1017.54 1017.70 1017.96 1018.41 1018.12 1018.17 1017.84 1017.80 1017.96 1017.93 1018.01 1018.29 1018.84 1019.17 1019.81 1020.13 1020.58 1020.75 1021.02 1021.33 1021.65
1009.17 1010.17 1011.00 1011.66 1012.62 1013.65 1014.38 1014.63 1015.02 1014.87 1014.72 1014.55 1014.60 1015.08 1015.70 1016.12 1016.32 1016.54 1016.62 1016.91 1017.43 1017.65 1017.94 1017.55 1017.65 1017.82 1017.68 1017.68 1017.86 1017.82 1018.16 1018.23 1018.40 1018.27 1018.32 1018.93 1019.58 1019.70 1020.10 1020.59 1021.12 1021.36 1021.57
1008.88 1009.99 1010.87 1011.69 1012.49 1013.34 1014.14 1014.66 1014.81 1014.70 1014.60 1014.55 1014.53 1014.73 1015.42 1015.87 1016.27 1016.49 1016.55 1016.73 1017.20 1017.73 1017.78 1017.52 1017.79 1017.79 1017.81 1017.90 1017.50 1018.23 1018.41 1018.37 1018.37 1018.27 1018.22 1018.92 1019.23 1019.74 1020.14 1020.66 1021.01 1021.35 1021.46
1008.48 1009.65 1010.60 1011.44 1012.12 1013.04 1013.71 1014.26 1014.46 1014.58 1014.56 1014.80 1014.54 1014.75 1015.31 1015.66 1016.12 1016.51 1016.85 1017.15 1017.28 1017.54 1017.73 1017.77 1017.97 1018.03 1018.05 1018.00 1018.22 1018.57 1018.79 1018.68 1018.45 1018.40 1018.58 1018.69 1019.05 1019.44 1020.04 1020.62 1020.90 1021.10 1021.32
1007.81 1009.05 1010.15 1011.03 1011.83 1012.49 1013.17 1013.81 1014.09 1014.12 1014.18 1014.48 1014.49 1014.57 1014.96 1015.39 1015.86 1016.34 1016.50 1016.87 1017.06 1017.27 1017.74 1017.93 1018.17 1018.34 1018.19 1018.17 1018.56 1018.69 1019.03 1019.14 1018.71 1018.62 1018.82 1019.14 1019.17 1019.28 1019.72 1020.11 1020.57 1020.77 1021.28
1007.07 1008.21 1009.39 1010.41 1011.23 1012.04 1012.64 1013.30 1013.69 1013.82 1013.96 1014.17 1014.33 1014.52 1014.69 1015.07 1015.52 1016.05 1016.43 1016.48 1016.85 1017.23 1017.69 1017.88 1018.04 1018.21 1018.39 1018.15 1018.37 1018.74 1018.95 1019.10 1018.97 1019.04 1019.08 1019.22 1019.31 1019.51 1019.66 1019.89 1020.26 1020.75 1020.86
1006.14 1007.48 1008.73 1009.74 1010.69 1011.64 1012.19 1012.66 1013.07 1013.29 1013.45 1013.55 1013.90 1014.16 1014.46 1014.77 1015.16 1015.39 1015.89 1016.23 1016.54 1016.81 1017.41 1017.68 1017.66 1017.87 1018.09 1018.19 1018.22 1018.45 1018.78 1019.08 1019.23 1019.49 1019.31 1019.32 1019.43 1019.55 1019.78 1019.98 1020.16 1020.32 1020.63
1005.53 1006.76 1007.95 1009.13 1010.15 1011.06 1011.84 1012.17 1012.63 1013.00 1013.04 1013.25 1013.42 1013.72 1013.99 1014.47 1014.70 1015.04 1015.50 1015.83 1016.34 1016.71 1017.12 1017.43 1017.60 1017.72 1017.83 1018.08 1018.11 1018.29 1018.58 1018.87 1019.01 1019.24 1019.40 1019.50 1019.39 1019.39 1019.60 1019.53 1019.95 1020.11 1020.27
1004.88 1006.19 1007.42 1008.64 1009.68 1010.51 1011.30 1011.76 1012.09 1012.42 1012.70 1012.82 1013.06 1013.26 1013.58 1013.99 1014.49 1014.63 1014.88 1015.48 1015.89 1016.45 1016.81 1017.14 1017.33 1017.52 1017.71 1017.87 1017.93 1017.97 1018.35 1018.68 1018.68 1018.85 1019.17 1019.11 1019.27 1019.26 1019.28 1019.25 1019.41 1019.80 1019.91
Wind_Speed
9 10 8 10 11 13 13 14 14 14 14 13 15 13 12 14 14 13 13 12 14 13 12 12 13 12 12 11 11 10 9 9 10 10 11 11 10 11 8 2 8 13 13
11 9 8 10 11 12 12 14 13 13 13 15 12 13 14 13 14 13 13 14 13 12 11 11 11 11 10 10 9 9 8 7 8 8 10 13 12 11 12 15 14 13 13
14 11 11 10 11 11 12 14 13 13 15 13 12 12 13 13 13 12 13 13 12 11 10 10 10 9 9 9 8 8 5 6 6 5 4 3 8 12 12 13 14 14 13
15 14 14 10 11 11 11 13 13 14 14 12 13 12 12 12 12 12 12 12 11 11 10 9 8 7 7 7 6 4 3 4 5 5 2 3 11 11 11 11 13 13 14
14 16 17 12 11 12 12 12 13 12 13 12 12 12 12 12 11 12 12 12 11 10 10 9 8 7 6 6 5 2 3 1 4 3 2 7 8 10 10 10 12 10 13
15 18 17 15 13 12 12 12 12 12 12 10 12 11 11 11 11 11 11 11 11 10 10 9 9 8 7 7 5 1 2 3 5 2 7 13 9 11 11 11 12 12 12
14 18 16 14 13 13 12 12 12 11 11 9 11 10 10 10 10 10 11 11 11 10 10 10 9 8 7 7 5 1 2 5 2 5 10 11 9 10 12 10 12 11 12
14 17 15 14 14 13 12 12 11 10 9 9 9 8 8 8 9 9 10 11 10 10 9 8 7 6 7 8 8 6 2 6 9 9 10 9 11 11 10 11 11 10 11
16 18 15 14 13 13 11 11 11 9 9 8 7 6 6 6 6 7 9 9 9 9 7 5 4 4 3 6 9 8 4 5 2 6 9 6 11 13 12 10 10 11 10
17 18 14 13 13 11 11 11 10 8 7 7 6 6 6 5 6 5 5 7 8 6 5 3 2 2 3 3 3 5 4 9 6 3 6 6 11 11 11 10 10 10 10
14 17 16 15 12 10 10 10 10 9 7 7 6 5 3 3 1 8 6 7 6 3 0 2 2 2 8 9 8 8 11 4 7 4 6 11 10 11 11 10 9 8 9
12 19 16 14 13 12 11 10 8 8 8 8 6 5 3 6 5 7 7 7 6 2 3 3 3 6 9 4 5 12 5 7 6 6 6 14 12 10 10 10 10 8 8
15 16 17 14 12 13 11 7 6 6 6 6 14 9 3 8 5 3 3 4 4 4 3 4 5 4 7 5 4 3 7 9 7 5 9 12 13 10 10 9 10 9 8
17 17 19 17 9 10 9 8 8 7 5 6 5 10 8 3 1 4 4 2 4 4 2 4 3 1 2 6 6 7 4 9 5 5 7 12 12 10 9 9 9 9 8
19 17 19 17 11 6 6 8 7 5 4 7 7 6 8 6 3 5 5 5 7 8 3 7 3 4 4 1 6 6 6 6 11 6 4 10 11 10 10 10 10 9 8
19 19 18 17 12 5 4 3 1 2 4 2 5 8 7 3 2 1 3 2 5 8 8 6 3 2 1 3 5 5 4 5 7 8 6 6 8 7 7 8 9 8 8
15 14 18 17 13 8 6 3 2 2 5 4 4 8 5 4 3 3 1 5 2 4 5 6 3 0 3 3 3 3 1 3 3 8 7 6 6 6 5 7 8 8 7
16 14 18 16 16 11 8 5 3 5 4 4 4 6 6 2 2 3 2 6 5 4 4 3 3 3 5 5 3 2 4 4 2 6 7 7 6 6 5 8 8 8 6
15 14 13 11 17 15 9 7 7 8 4 4 3 6 7 5 4 2 1 4 5 3 4 3 1 3 1 1 5 1 4 4 5 2 5 10 8 7 5 9 8 9 7
17 16 13 11 13 15 9 7 8 7 5 4 3 3 9 5 5 3 3 2 5 4 3 3 3 3 2 3 5 5 5 3 4 4 3 10 8 6 8 6 6 5 7
18 18 16 14 11 12 10 10 8 8 6 5 3 5 8 6 6 4 1 5 4 4 3 3 2 1 1 2 3 3 3 2 3 1 3 5 7 6 9 7 5 5 4
20 19 18 15 12 12 9 9 8 7 6 6 4 5 8 7 6 6 5 4 5 4 4 3 2 1 1 2 0 1 3 1 3 5 4 4 4 5 5 10 7 7 5
21 20 19 18 15 14 13 8 6 5 4 6 6 5 6 7 8 6 6 5 3 5 3 4 3 4 0 1 2 1 3 2 3 2 0 3 1 4 5 5 7 8 6
20 20 20 18 16 15 13 11 10 8 8 6 6 6 7 9 8 9 9 6 5 4 6 4 4 2 3 4 1 2 4 2 2 0 2 4 2 4 5 4 6 5 7
20 20 19 19 17 15 15 10 11 11 8 8 6 7 8 10 10 9 10 7 6 3 6 7 3 4 2 1 3 3 2 2 2 2 2 2 2 3 4 3 5 5 6
19 20 18 19 17 16 16 17 12 14 10 9 8 8 8 8 8 8 8 8 6 5 6 5 5 5 4 2 2 1 4 3 3 3 2 3 5 3 4 5 4 5 5
Wind_Direction
174 127 135 113 107 108 104 105 104 101 95 95 86 91 86 80 85 84 89 88 88 92 92 90 86 86 83 78 74 70 73 80 89 88 89 81 70 64 47 25 140 98 95
150 134 144 126 110 107 111 110 109 104 100 91 96 89 82 83 86 90 90 86 88 91 94 90 88 86 80 77 75 76 81 93 103 107 109 99 85 67 54 69 90 101 102
146 155 157 139 121 113 119 113 110 103 94 97 89 89 90 90 91 86 84 85 87 91 90 89 88 88 86 85 78 77 81 94 104 121 104 62 92 84 77 87 92 94 99
152 166 143 150 127 124 124 115 110 103 101 99 96 96 92 91 89 84 89 91 88 84 84 83 85 86 89 93 100 97 108 119 123 112 258 243 99 93 90 90 97 100 102
161 172 129 140 133 132 124 116 111 108 107 104 102 98 94 89 90 92 90 91 86 85 82 77 84 88 95 96 102 133 232 193 116 171 170 80 94 95 99 107 104 89 93
178 137 134 140 137 136 125 122 117 113 111 112 110 102 97 93 93 92 93 91 89 88 86 82 84 86 95 106 118 120 265 317 109 72 98 80 81 101 91 95 93 97 97
167 125 135 142 146 137 133 127 122 119 114 112 111 110 108 101 93 96 96 98 98 95 91 87 90 90 98 108 126 138 307 301 203 133 100 96 93 98 95 95 95 96 102
155 140 136 143 146 139 139 133 126 124 121 114 112 110 110 112 109 105 105 106 105 103 101 103 113 119 121 128 155 167 198 298 46 90 93 96 107 101 98 99 105 102 104
144 135 141 149 144 144 141 137 132 134 127 117 117 127 126 115 108 112 112 114 112 107 109 124 124 112 137 167 166 171 170 347 84 119 115 112 114 112 105 103 109 110 110
157 140 149 148 155 156 151 140 139 143 134 139 158 159 142 150 138 139 142 126 123 126 139 125 77 348 323 278 252 165 139 68 16 26 90 115 121 119 113 111 102 112 114
150 151 163 158 159 152 139 148 146 149 162 174 192 181 326 160 174 178 129 146 126 117 130 91 134 84 329 301 255 232 162 173 175 129 118 131 127 128 126 125 115 111 119
159 160 166 161 161 155 160 142 164 173 186 194 136 139 326 266 194 203 176 157 135 87 323 299 268 113 219 266 255 219 202 179 174 122 131 137 139 137 144 141 131 129 123
177 168 160 161 169 168 136 167 176 185 203 195 140 136 172 266 175 181 161 160 155 119 272 332 319 230 197 262 255 191 222 145 137 131 139 142 136 148 153 151 149 149 145
190 172 162 154 175 170 152 169 193 197 193 164 166 159 156 346 309 181 183 175 129 108 297 248 281 52 71 355 344 332 79 96 101 116 150 148 137 146 158 157 163 164 157
191 170 152 152 164 183 176 176 209 196 185 132 144 161 125 210 257 152 156 122 113 110 334 285 33 11 55 296 314 311 45 69 137 133 137 151 142 150 161 173 170 172 171
197 162 149 151 156 175 218 209 254 198 167 195 168 148 157 171 237 42 66 55 132 150 180 219 134 271 82 221 239 4 35 75 114 137 139 157 148 148 157 172 176 176 177
168 165 148 150 161 171 208 231 244 217 236 193 106 134 152 179 141 127 129 103 44 158 159 128 195 328 229 262 194 108 15 112 112 128 138 138 148 158 176 170 173 175 187
170 169 155 166 165 178 186 189 229 257 228 241 168 136 146 207 251 178 211 128 163 285 149 173 187 160 258 222 168 239 180 128 91 114 158 151 148 136 161 170 162 166 179
170 161 163 173 162 168 181 184 218 237 244 251 171 147 155 178 198 231 246 154 104 79 300 155 301 339 224 101 145 120 126 98 146 162 147 136 146 154 149 162 162 158 169
168 163 168 175 162 164 178 205 196 236 212 265 200 177 157 170 191 212 264 80 126 144 249 64 52 19 18 345 80 77 50 11 141 159 201 143 151 142 128 159 144 159 177
167 166 174 173 172 165 178 187 211 215 192 218 241 157 166 172 181 198 180 125 251 163 94 134 145 257 88 321 81 110 95 191 269 119 106 76 113 171 158 155 134 155 161
172 169 173 180 178 175 177 186 208 199 199 193 218 177 164 173 172 193 211 219 184 134 159 190 214 305 143 227 255 111 151 234 238 80 81 75 5 117 107 141 156 129 149
174 174 175 179 178 179 181 187 198 206 219 185 201 192 180 178 195 191 192 246 167 130 185 201 198 226 176 175 122 286 63 197 113 92 134 116 194 117 127 113 149 153 153
181 176 174 177 177 181 192 189 193 206 202 199 191 194 181 190 211 197 183 196 220 192 160 214 210 209 169 203 120 263 90 119 94 157 220 140 181 146 142 153 146 148 147
180 175 172 176 180 181 192 211 192 198 207 211 192 199 190 186 199 226 175 189 181 198 171 197 219 193 240 183 180 170 137 184 161 112 190 162 201 178 162 174 161 161 171
181 177 175 174 183 185 191 207 209 195 214 203 207 197 188 178 194 204 193 181 175 199 176 181 202 174 223 315 243 197 149 195 183 197 213 198 189 205 165 180 147 165 178